Flag for Canada Weather past 2 weeks in Selkirk, Manitoba, Canada

Now
51 °F

Cool.


Feels Like: 49 °F
Forecast: 49 / 59 °F
Wind: 6 mph from Southeast

Location: Winnipeg The Forks

Current Time: Oct 1, 2014 at 12:00:43 AM

Latest Report: Sep 30, 2014 at 11:00 PM


Visibility: N/A

Pressure: 29.64 "Hg

Humidity: 89%

Dew point: 48 °F

Location of SelkirkLocation

Historic Weather in Selkirk — Graph

°F

Selkirk temperature yesterday

Maximum temperature yesterday: 61 °F (at 5:00 PM)
Minimum temperature yesterday: 42 °F (at 6:00 AM)
Average temperature yesterday: 51 °F

Past Weeks' High & Low Weather Summary

 TemperatureHumidityPressure
High85 °F (Sep 26, 4:00 PM)97% (Sep 25, 8:00 AM)30.34 "Hg (Sep 25, 8:00 AM)
Low36 °F (Sep 18, 4:00 AM)26% (Sep 22, 4:00 PM)29.43 "Hg (Sep 19, 12:00 PM)
Average59 °F75%29.97 "Hg
* Reported Sep 15 11:00 PM — Sep 30 11:00 PM, Selkirk, Weather by CustomWeather, © 2014

Note: Actual official high and low records may vary slightly from our data, if they occured in-between our weather recording intervals... More about our weather records

Advertising

Selkirk weather history for previous 24 hours

 ConditionsComfort  
Time TempWeatherWind HumidityBarometerVisibility
11:00 PM
Sep 30
51 °FCool.6 mph89%29.64 "HgN/A
10:00 PM54 °FCool.5 mph79%29.67 "HgN/A
9:00 PM55 °FCool.7 mph70%29.69 "HgN/A
8:00 PM56 °FCool.5 mph65%29.70 "HgN/A
7:00 PM58 °FCool.8 mph62%29.72 "HgN/A
6:00 PM59 °FRefreshingly cool.6 mph59%29.72 "HgN/A
5:00 PM61 °FRefreshingly cool.5 mph51%29.76 "HgN/A
4:00 PM60 °FRefreshingly cool.5 mph54%29.78 "HgN/A
3:00 PM59 °FCool.5 mph60%29.81 "HgN/A
2:00 PM56 °FCool.7 mph63%29.84 "HgN/A
1:00 PM53 °FCool.7 mph68%29.88 "HgN/A
12:00 PM49 °FCool.8 mph76%29.90 "HgN/A
9:00 AM45 °FQuite cool.2 mph87%29.98 "HgN/A
8:00 AM44 °FQuite cool.3 mph91%29.99 "HgN/A
7:00 AM43 °FQuite cool.2 mph93%30.00 "HgN/A
6:00 AM42 °FQuite cool.3 mph92%30.02 "HgN/A
5:00 AM43 °FQuite cool.3 mph90%30.03 "HgN/A
4:00 AM44 °FQuite cool.2 mph88%30.04 "HgN/A
3:00 AM45 °FCool.3 mph87%30.05 "HgN/A
2:00 AM48 °FCool.1 mph84%30.07 "HgN/A
1:00 AM50 °FCool.2 mph79%30.08 "HgN/A
12:00 AM51 °FCool.3 mph80%30.09 "HgN/A
Weather by CustomWeather, © 2014

See weather overviewHow to use our weather pages